Regional Weather Roundup
Issued by NWS

Home | Current Version | Previous Version | Text Only | Print | Product List | Glossary On
Versions: 1 2 3 4 5 6 7 8 9 10 11 12 13 14 15 16 17 18 19 20 21 22 23 24 25 26 27
000
ASUS46 KSEW 302210
RWRWA

WASHINGTON REGIONAL WEATHER ROUNDUP
NATIONAL WEATHER SERVICE SEATTLE WA
300 PM PDT SAT JUL 30 2016

NOTE:"FAIR" INDICATES FEW OR NO CLOUDS BELOW 12,000 FEET WITH NO
SIGNIFICANT WEATHER AND/OR OBSTRUCTIONS TO VISIBILITY.

WAZ505-507>509-302300-
SEATTLE, TACOMA, EVERETT, AND VICINITY

CITY           SKY/WX    TMP DP  RH WIND       PRES   REMARKS
EVERETT        SUNNY     72  51  47 VRB7      29.97S
BOEING FIELD   SUNNY     72  52  49 VRB7      29.95F
RENTON         SUNNY     72  52  49 VRB7      29.95F
SEATAC AIRPORT SUNNY     71  54  54 W12       29.97F
JBLM-MCCHORD   NOT AVBL
PUYALLUP       FAIR      75  52  43 SW7G14    29.96F
BREMERTON      SUNNY     73  54  49 SW12      29.98F
JBLM-FT LEWIS  SUNNY     75  55  50 S13       29.94F
TACOMA NARROWS SUNNY     72  51  47 NW6       29.96F
$$

WAZ001-503-506-510-514-515-302300-
NORTH INTERIOR

CITY           SKY/WX    TMP DP  RH WIND       PRES   REMARKS
BELLINGHAM     SUNNY     74  48  39 VRB7      29.94S
FRIDAY HARBOR  SUNNY     75  50  41 E7        29.95F
EASTSOUND      SUNNY     68  50  52 NE6       29.93S
PORT ANGELES   SUNNY     67  52  58 VRB5      29.96R
EDIZ HOOK      FAIR      62  53  70 W8        29.95S
PORT TOWNSEND  FAIR      72  55  56 E9G17     29.94S
NAS WHIDBEY    MOSUNNY   72  47  40 NW8       29.98S
ARLINGTON      MOSUNNY   73  52  46 S12       29.96S
BURLINGTON     SUNNY     73  46  38 NW12      29.94S
$$

WAZ020-022-039-040-504-511-512-302300-
SOUTHWEST INTERIOR

CITY           SKY/WX    TMP DP  RH WIND       PRES   REMARKS
SHELTON        SUNNY     71  53  52 S15G23    29.94F
OLYMPIA        SUNNY     73  51  46 W8        29.96F
CHEHALIS       FAIR      77  54  44 SW12      29.97F
KELSO          SUNNY     74  53  48 W10       30.00F
VANCOUVER      SUNNY     77  50  38 CALM      29.97F
SCAPPOOSE, OR  SUNNY     78  47  33 NW8       29.97F
PORTLAND, OR   SUNNY     78  49  35 N7        29.97F
$$

WAZ021-516-517-302300-
WASHINGTON COAST

CITY           SKY/WX    TMP DP  RH WIND       PRES   REMARKS
FORKS          MOSUNNY   63  53  70 W9        30.00R
HOQUIAM        SUNNY     64  54  69 W18       30.01S HAZE
ASTORIA, OR    MOSUNNY   65  52  62 NW16      30.06R
$$

WAZ019-023-024-040-518-519-302300-
CASCADE MOUNTAINS AND COLUMBIA GORGE

CITY           SKY/WX    TMP DP  RH WIND       PRES   REMARKS
STAMPEDE PASS  SUNNY     64  46  52 VRB7      30.00S
TROUTDALE, OR  SUNNY     78  50  37 MISG      29.97F
THE DALLES, OR SUNNY     86  35  16 W23G33    29.80S
$$

WAZ026-027-041>044-520-521-302300-
EAST SLOPES

CITY           SKY/WX    TMP DP  RH WIND       PRES   REMARKS
OMAK           SUNNY     96  35  11 SE10G18   29.64F HX  91
WENATCHEE      SUNNY     93  38  14 NW20      29.70S
ELLENSBURG     SUNNY     85  45  24 NW25G35   29.80R
YAKIMA         SUNNY     96  35  11 W9G18     29.72F HX  91
$$

WAZ028-034-035-302300-
COLUMBIA BASIN

CITY           SKY/WX    TMP DP  RH WIND       PRES   REMARKS
EPHRATA        SUNNY     94  45  18 W15G21    29.68F HX  90
MOSES LAKE     SUNNY     95  40  14 SW15      29.69F HX  91
PASCO          SUNNY     97  46  17 SW14      29.68F HX  93
HERMISTON, OR  SUNNY     96  32  10 SW26G35   29.71F HX  90
$$

WAZ036>038-302300-
NORTHEAST WASHINGTON

CITY           SKY/WX    TMP DP  RH WIND       PRES   REMARKS
SPOKANE GEIGER MOSUNNY   91  41  17 SW21G30   29.75F
SPOKANE FELTS  SUNNY     92  43  18 W7        29.73F
FAIRCHILD AFB  SUNNY     90  43  19 S18       29.76F
COEURDALENE,ID SUNNY     90  48  24 SW16G25   29.72F
DEER PARK      SUNNY     93  36  13 SW16G26   29.73F
$$

WAZ029>033-302300-
SOUTHEAST WASHINGTON

CITY           SKY/WX    TMP DP  RH WIND       PRES   REMARKS
PULLMAN        SUNNY     89  45  21 W13G23    29.82F
LEWISTON, ID   SUNNY     98  44  15 NW14G23   29.70F HX  94
WALLA WALLA    SUNNY     94  25   8 SW17G24   29.74F
PENDLETON, OR  SUNNY     95  18   6 W28G38    29.76F
$$




USA.gov is the U.S. government's official web portal to all federal, state and local government web resources and services.